| time (UTC) | temp C | wind direction | speed KPH | gust KPH | rain 1hr cm | rain 24hr cm | rain mn cm | humidity % | barometer mb |
| 20260504202053 | 25 | 207 | 12.9 | 27.4 | 0.00 | 0.00 | 0.00 | 52 | 1013.6 |
| 20260504201553 | 25 | 177 | 11.3 | 29.0 | 0.00 | 0.00 | 0.00 | 52 | 1013.6 |
| 20260504201049 | 25 | 153 | 14.5 | 29.0 | 0.00 | 0.00 | 0.00 | 51 | 1013.7 |
| 20260504200552 | 25 | 219 | 14.5 | 30.6 | 0.00 | 0.00 | 0.00 | 51 | 1013.9 |
| 20260504200100 | 25 | 192 | 16.1 | 30.6 | 0.00 | 0.00 | 0.00 | 50 | 1013.9 |
| 20260504195553 | 25 | 166 | 12.9 | 25.7 | 0.00 | 0.00 | 0.00 | 49 | 1014.0 |
| 20260504195052 | 26 | 282 | 8.0 | 25.7 | 0.00 | 0.00 | 0.00 | 51 | 1014.1 |
| 20260504194559 | 25 | 188 | 8.0 | 24.1 | 0.00 | 0.00 | 0.00 | 52 | 1014.1 |
| 20260504194053 | 25 | 188 | 12.9 | 27.4 | 0.00 | 0.00 | 0.00 | 51 | 1014.2 |
| 20260504193553 | 25 | 188 | 14.5 | 27.4 | 0.00 | 0.00 | 0.00 | 52 | 1014.3 |
| 20260504193101 | 25 | 175 | 14.5 | 25.7 | 0.00 | 0.00 | 0.00 | 50 | 1014.6 |
| 20260504192552 | 25 | 198 | 8.0 | 24.1 | 0.00 | 0.00 | 0.00 | 51 | 1014.5 |
| 20260504192053 | 25 | 158 | 14.5 | 24.1 | 0.00 | 0.00 | 0.00 | 48 | 1014.5 |
| 20260504191601 | 25 | 205 | 8.0 | 32.2 | 0.00 | 0.00 | 0.00 | 51 | 1014.6 |
| 20260504191053 | 25 | 214 | 8.0 | 37.0 | 0.00 | 0.00 | 0.00 | 55 | 1014.7 |
| 20260504190549 | 24 | 248 | 14.5 | 37.0 | 0.00 | 0.00 | 0.00 | 52 | 1014.7 |
| 20260504190052 | 24 | 198 | 9.7 | 32.2 | 0.00 | 0.00 | 0.00 | 50 | 1014.6 |
| 20260504185550 | 25 | 169 | 14.5 | 32.2 | 0.00 | 0.00 | 0.00 | 50 | 1014.9 |
| 20260504185049 | 25 | 211 | 12.9 | 24.1 | 0.00 | 0.00 | 0.00 | 52 | 1014.7 |
| 20260504184555 | 25 | 199 | 9.7 | 27.4 | 0.00 | 0.00 | 0.00 | 56 | 1014.8 |
| 20260504184049 | 24 | 199 | 12.9 | 32.2 | 0.00 | 0.00 | 0.00 | 52 | 1014.7 |
| 20260504183552 | 25 | 244 | 16.1 | 32.2 | 0.00 | 0.00 | 0.00 | 51 | 1014.8 |
| 20260504183050 | 24 | 182 | 11.3 | 25.7 | 0.00 | 0.00 | 0.00 | 51 | 1014.9 |
| 20260504182552 | 24 | 207 | 12.9 | 25.7 | 0.00 | 0.00 | 0.00 | 54 | 1015.0 |
| 20260504182052 | 24 | 184 | 6.4 | 30.6 | 0.00 | 0.00 | 0.00 | 53 | 1015.1 |
| 20260504181559 | 25 | 204 | 6.4 | 30.6 | 0.00 | 0.00 | 0.00 | 50 | 1015.2 |
| 20260504181052 | 24 | 234 | 11.3 | 29.0 | 0.00 | 0.00 | 0.00 | 53 | 1015.2 |
| 20260504180552 | 24 | 208 | 11.3 | 25.7 | 0.00 | 0.00 | 0.00 | 52 | 1015.3 |
| 20260504180103 | 25 | 221 | 9.7 | 27.4 | 0.00 | 0.00 | 0.00 | 53 | 1015.4 |
| 20260504175551 | 23 | 147 | 8.0 | 27.4 | 0.00 | 0.00 | 0.00 | 53 | 1015.3 |
| 20260504175052 | 25 | 229 | 11.3 | 25.7 | 0.00 | 0.00 | 0.00 | 52 | 1015.5 |
| 20260504174557 | 25 | 177 | 11.3 | 20.9 | 0.00 | 0.00 | 0.00 | 48 | 1015.5 |
| 20260504174052 | 25 | 217 | 11.3 | 20.9 | 0.00 | 0.00 | 0.00 | 55 | 1015.6 |
| 20260504173552 | 25 | 201 | 6.4 | 24.1 | 0.00 | 0.00 | 0.00 | 58 | 1015.7 |
| 20260504173053 | 25 | 204 | 9.7 | 24.1 | 0.00 | 0.00 | 0.00 | 53 | 1015.7 |
| 20260504172551 | 25 | 186 | 9.7 | 25.7 | 0.00 | 0.00 | 0.00 | 55 | 1015.9 |
| 20260504172051 | 24 | 171 | 14.5 | 25.7 | 0.00 | 0.00 | 0.00 | 53 | 1015.8 |
| 20260504171559 | 25 | 209 | 4.8 | 20.9 | 0.00 | 0.00 | 0.00 | 57 | 1015.9 |
| 20260504171050 | 24 | 264 | 9.7 | 25.7 | 0.00 | 0.00 | 0.00 | 55 | 1016.0 |
| 20260504170552 | 23 | 184 | 11.3 | 24.1 | 0.00 | 0.00 | 0.00 | 55 | 1015.9 |
| 20260504151052 | 22 | 192 | 11.3 | 24.1 | 0.00 | 0.00 | 0.00 | 59 | 1016.5 |
| 20260504150551 | 21 | 194 | 11.3 | 24.1 | 0.00 | 0.00 | 0.00 | 61 | 1016.4 |
| 20260504150109 | 21 | 205 | 9.7 | 22.5 | 0.00 | 0.00 | 0.00 | 60 | 1016.5 |
| 20260504141051 | 20 | 234 | 3.2 | 14.5 | 0.00 | 0.00 | 0.00 | 65 | 1016.9 |
| 20260504140551 | 20 | 185 | 4.8 | 16.1 | 0.00 | 0.00 | 0.00 | 67 | 1016.8 |
| 20260504130552 | 16 | 194 | 8.0 | 14.5 | 0.00 | 0.00 | 0.00 | 74 | 1016.6 |
| 20260504110552 | 15 | 228 | 3.2 | 8.0 | 0.00 | 0.00 | 0.00 | 78 | 1015.9 |
| 20260504100552 | 15 | 194 | 4.8 | 12.9 | 0.00 | 0.00 | 0.00 | 76 | 1015.7 |
| 20260504081556 | 15 | 179 | 4.8 | 8.0 | 0.00 | 0.00 | 0.00 | 80 | 1016.1 |
| 20260504081050 | 15 | 180 | 3.2 | 8.0 | 0.00 | 0.00 | 0.00 | 80 | 1016.1 |
| 20260504080550 | 15 | 186 | 3.2 | 8.0 | 0.00 | 0.00 | 0.00 | 81 | 1016.2 |
| 20260504080114 | 15 | 196 | 1.6 | 8.0 | 0.00 | 0.00 | 0.00 | 81 | 1016.2 |
| 20260504050553 | 16 | 180 | 1.6 | 6.4 | 0.00 | 0.00 | 0.00 | 79 | 1017.3 |
| 20260504045552 | 16 | 175 | 1.6 | 6.4 | 0.00 | 0.00 | 0.00 | 79 | 1017.3 |
| 20260504045052 | 16 | 217 | 3.2 | 6.4 | 0.00 | 0.00 | 0.00 | 79 | 1017.4 |
| 20260504044555 | 16 | 181 | 1.6 | 6.4 | 0.00 | 0.00 | 0.00 | 79 | 1017.4 |
| 20260504044052 | 16 | 153 | 0.0 | 8.0 | 0.00 | 0.00 | 0.00 | 80 | 1017.4 |
| 20260504043552 | 16 | 153 | 1.6 | 8.0 | 0.00 | 0.00 | 0.00 | 80 | 1017.5 |
| 20260504043112 | 16 | 176 | 3.2 | 8.0 | 0.00 | 0.00 | 0.00 | 80 | 1017.5 |
| 20260504042550 | 16 | 176 | 1.6 | 4.8 | 0.00 | 0.00 | 0.00 | 81 | 1017.4 |
| 20260504042049 | 16 | 176 | 0.0 | 4.8 | 0.00 | 0.00 | 0.00 | 81 | 1017.4 |
| 20260504041550 | 16 | 202 | 1.6 | 6.4 | 0.00 | 0.00 | 0.00 | 81 | 1017.5 |
| 20260504041049 | 16 | 0 | 0.0 | 6.4 | 0.00 | 0.00 | 0.00 | 81 | 1017.5 |
| 20260504040553 | 16 | 183 | 1.6 | 4.8 | 0.00 | 0.00 | 0.00 | 81 | 1017.5 |
| 20260504040114 | 16 | 200 | 1.6 | 4.8 | 0.00 | 0.00 | 0.00 | 81 | 1017.5 |
| 20260504035551 | 16 | 0 | 0.0 | 4.8 | 0.00 | 0.00 | 0.00 | 80 | 1017.5 |
| 20260504035050 | 16 | 0 | 0.0 | 4.8 | 0.00 | 0.00 | 0.00 | 80 | 1017.5 |
| 20260504034556 | 16 | 200 | 1.6 | 4.8 | 0.00 | 0.00 | 0.00 | 80 | 1017.5 |
| 20260504034049 | 16 | 0 | 0.0 | 3.2 | 0.00 | 0.00 | 0.00 | 80 | 1017.5 |
| 20260504033549 | 16 | 0 | 0.0 | 4.8 | 0.00 | 0.00 | 0.00 | 80 | 1017.6 |
| 20260504033056 | 16 | 0 | 0.0 | 4.8 | 0.00 | 0.00 | 0.00 | 79 | 1017.6 |
| 20260504032550 | 16 | 200 | 0.0 | 4.8 | 0.00 | 0.00 | 0.00 | 79 | 1017.5 |
| 20260504032050 | 17 | 200 | 0.0 | 4.8 | 0.00 | 0.00 | 0.00 | 79 | 1017.5 |
| 20260504031559 | 17 | 0 | 0.0 | 4.8 | 0.00 | 0.00 | 0.00 | 79 | 1017.3 |
| 20260504031049 | 17 | 0 | 0.0 | 4.8 | 0.00 | 0.00 | 0.00 | 79 | 1017.4 |
| 20260504030549 | 17 | 0 | 0.0 | 0.0 | 0.00 | 0.00 | 0.00 | 79 | 1017.4 |
| 20260504030053 | 17 | 0 | 0.0 | 0.0 | 0.00 | 0.00 | 0.00 | 79 | 1017.4 |
| 20260504025549 | 17 | 0 | 0.0 | 0.0 | 0.00 | 0.00 | 0.00 | 78 | 1017.4 |
| 20260504025050 | 17 | 0 | 0.0 | 1.6 | 0.00 | 0.00 | 0.00 | 78 | 1017.3 |
| 20260504024554 | 17 | 0 | 0.0 | 1.6 | 0.00 | 0.00 | 0.00 | 77 | 1017.4 |
| 20260504024050 | 17 | 0 | 0.0 | 4.8 | 0.00 | 0.00 | 0.00 | 76 | 1017.3 |
| 20260504023551 | 17 | 167 | 0.0 | 4.8 | 0.00 | 0.00 | 0.00 | 75 | 1017.4 |
| 20260504023101 | 17 | 158 | 0.0 | 1.6 | 0.00 | 0.00 | 0.00 | 74 | 1017.3 |
| 20260504022552 | 18 | 0 | 0.0 | 1.6 | 0.00 | 0.00 | 0.00 | 74 | 1017.3 |
| 20260504022049 | 18 | 0 | 0.0 | 1.6 | 0.00 | 0.00 | 0.00 | 73 | 1017.3 |
| 20260504021554 | 18 | 0 | 0.0 | 0.0 | 0.00 | 0.00 | 0.00 | 72 | 1017.3 |
| 20260504021049 | 18 | 0 | 0.0 | 0.0 | 0.00 | 0.00 | 0.00 | 71 | 1017.3 |
| 20260504020555 | 18 | 0 | 0.0 | 0.0 | 0.00 | 0.00 | 0.00 | 71 | 1017.3 |
| 20260504020101 | 18 | 0 | 0.0 | 0.0 | 0.00 | 0.00 | 0.00 | 71 | 1017.3 |
| 20260504015551 | 18 | 0 | 0.0 | 0.0 | 0.00 | 0.00 | 0.00 | 70 | 1017.1 |
| 20260504015049 | 19 | 0 | 0.0 | 0.0 | 0.00 | 0.00 | 0.00 | 69 | 1017.1 |
| 20260504014601 | 19 | 0 | 0.0 | 0.0 | 0.00 | 0.00 | 0.00 | 69 | 1017.1 |
| 20260504014050 | 20 | 0 | 0.0 | 0.0 | 0.00 | 0.00 | 0.00 | 68 | 1017.1 |
| 20260504013551 | 20 | 0 | 0.0 | 0.0 | 0.00 | 0.00 | 0.00 | 68 | 1017.0 |
| 20260504013113 | 20 | 0 | 0.0 | 0.0 | 0.00 | 0.00 | 0.00 | 67 | 1016.9 |
| 20260504012551 | 21 | 0 | 0.0 | 0.0 | 0.00 | 0.00 | 0.00 | 68 | 1016.9 |
| 20260504012051 | 21 | 0 | 0.0 | 0.0 | 0.00 | 0.00 | 0.00 | 68 | 1016.8 |
| 20260504011600 | 21 | 0 | 0.0 | 0.0 | 0.00 | 0.00 | 0.00 | 68 | 1016.9 |
| 20260504011049 | 21 | 0 | 0.0 | 0.0 | 0.00 | 0.00 | 0.00 | 66 | 1016.8 |
| 20260504010550 | 21 | 0 | 0.0 | 0.0 | 0.00 | 0.00 | 0.00 | 66 | 1016.7 |
| 20260504010057 | 22 | 0 | 0.0 | 1.6 | 0.00 | 0.00 | 0.00 | 63 | 1016.8 |
| 20260504005553 | 22 | 0 | 0.0 | 3.2 | 0.00 | 0.00 | 0.00 | 61 | 1016.7 |
| 20260504005055 | 22 | 0 | 0.0 | 3.2 | 0.00 | 0.00 | 0.00 | 62 | 1016.7 |
| 20260504004558 | 22 | 0 | 0.0 | 0.0 | 0.00 | 0.00 | 0.00 | 62 | 1016.5 |
| 20260504004053 | 22 | 0 | 0.0 | 0.0 | 0.00 | 0.00 | 0.00 | 61 | 1016.5 |
| 20260504003552 | 22 | 0 | 0.0 | 0.0 | 0.00 | 0.00 | 0.00 | 60 | 1016.5 |
| 20260504003105 | 22 | 0 | 0.0 | 3.2 | 0.00 | 0.00 | 0.00 | 59 | 1016.5 |
| 20260504002551 | 22 | 0 | 0.0 | 3.2 | 0.00 | 0.00 | 0.00 | 59 | 1016.5 |
| 20260504002050 | 22 | 0 | 0.0 | 6.4 | 0.00 | 0.00 | 0.00 | 59 | 1016.6 |
| 20260504001607 | 22 | 198 | 1.6 | 6.4 | 0.00 | 0.00 | 0.00 | 58 | 1016.7 |
| 20260504001050 | 22 | 198 | 1.6 | 6.4 | 0.00 | 0.00 | 0.00 | 58 | 1016.6 |
| 20260504000549 | 22 | 208 | 1.6 | 6.4 | 0.00 | 0.00 | 0.00 | 57 | 1016.8 |
| 20260504000122 | 23 | 216 | 1.6 | 8.0 | 0.00 | 0.00 | 0.00 | 56 | 1016.7 |
| 20260503235550 | 23 | 208 | 3.2 | 9.7 | 0.00 | 0.00 | 0.00 | 54 | 1016.6 |
| 20260503235050 | 23 | 196 | 4.8 | 11.3 | 0.00 | 0.00 | 0.00 | 53 | 1016.7 |
| 20260503234556 | 23 | 209 | 4.8 | 11.3 | 0.00 | 0.00 | 0.00 | 54 | 1016.7 |
| 20260503234050 | 23 | 196 | 6.4 | 11.3 | 0.00 | 0.00 | 0.00 | 52 | 1016.7 |
| 20260503233553 | 23 | 193 | 1.6 | 9.7 | 0.00 | 0.00 | 0.00 | 53 | 1016.7 |
| 20260503233052 | 24 | 192 | 4.8 | 11.3 | 0.00 | 0.00 | 0.00 | 52 | 1016.7 |
| 20260503232549 | 24 | 196 | 3.2 | 14.5 | 0.00 | 0.00 | 0.00 | 53 | 1016.7 |
| 20260503232049 | 24 | 228 | 8.0 | 14.5 | 0.00 | 0.00 | 0.00 | 49 | 1016.7 |
| 20260503231552 | 24 | 188 | 3.2 | 12.9 | 0.00 | 0.00 | 0.00 | 52 | 1016.7 |
| 20260503231052 | 24 | 200 | 8.0 | 12.9 | 0.00 | 0.00 | 0.00 | 52 | 1016.7 |
| 20260503230550 | 25 | 223 | 1.6 | 9.7 | 0.00 | 0.00 | 0.00 | 50 | 1016.7 |
| 20260503230052 | 25 | 200 | 4.8 | 9.7 | 0.00 | 0.00 | 0.00 | 48 | 1016.8 |
| 20260503225550 | 25 | 226 | 0.0 | 8.0 | 0.00 | 0.00 | 0.00 | 48 | 1016.7 |
| 20260503225052 | 25 | 159 | 3.2 | 12.9 | 0.00 | 0.00 | 0.00 | 49 | 1016.8 |
| 20260503224554 | 25 | 250 | 4.8 | 14.5 | 0.00 | 0.00 | 0.00 | 49 | 1016.9 |
| 20260503224051 | 25 | 212 | 3.2 | 14.5 | 0.00 | 0.00 | 0.00 | 49 | 1016.8 |
| 20260503223550 | 25 | 188 | 6.4 | 14.5 | 0.00 | 0.00 | 0.00 | 48 | 1016.9 |
| 20260503223053 | 25 | 216 | 4.8 | 12.9 | 0.00 | 0.00 | 0.00 | 49 | 1017.0 |
| 20260503222554 | 25 | 191 | 3.2 | 16.1 | 0.00 | 0.00 | 0.00 | 47 | 1017.0 |
| 20260503222049 | 25 | 308 | 3.2 | 16.1 | 0.00 | 0.00 | 0.00 | 48 | 1017.1 |
| 20260503221558 | 25 | 184 | 8.0 | 14.5 | 0.00 | 0.00 | 0.00 | 46 | 1017.0 |
| 20260503221049 | 25 | 212 | 3.2 | 14.5 | 0.00 | 0.00 | 0.00 | 48 | 1017.2 |
| 20260503220550 | 25 | 233 | 4.8 | 16.1 | 0.00 | 0.00 | 0.00 | 48 | 1017.3 |
| 20260503220053 | 25 | 184 | 8.0 | 16.1 | 0.00 | 0.00 | 0.00 | 47 | 1017.3 |
| 20260503215552 | 25 | 191 | 1.6 | 6.4 | 0.00 | 0.00 | 0.00 | 50 | 1017.3 |
| 20260503215050 | 25 | 0 | 0.0 | 11.3 | 0.00 | 0.00 | 0.00 | 46 | 1017.5 |
| 20260503214553 | 24 | 216 | 1.6 | 14.5 | 0.00 | 0.00 | 0.00 | 52 | 1017.6 |
| 20260503214052 | 24 | 183 | 4.8 | 14.5 | 0.00 | 0.00 | 0.00 | 48 | 1017.7 |
| 20260503213552 | 25 | 205 | 4.8 | 14.5 | 0.00 | 0.00 | 0.00 | 46 | 1017.8 |
| 20260503213050 | 25 | 200 | 4.8 | 14.5 | 0.00 | 0.00 | 0.00 | 50 | 1017.9 |
| 20260503212550 | 25 | 243 | 6.4 | 14.5 | 0.00 | 0.00 | 0.00 | 45 | 1018.0 |
| 20260503212049 | 25 | 211 | 4.8 | 12.9 | 0.00 | 0.00 | 0.00 | 46 | 1018.1 |
| 20260503211554 | 24 | 194 | 1.6 | 14.5 | 0.00 | 0.00 | 0.00 | 49 | 1018.1 |
| 20260503211049 | 24 | 187 | 6.4 | 16.1 | 0.00 | 0.00 | 0.00 | 46 | 1018.2 |
| 20260503210552 | 25 | 184 | 8.0 | 16.1 | 0.00 | 0.00 | 0.00 | 47 | 1018.2 |
| 20260503210054 | 25 | 213 | 3.2 | 14.5 | 0.00 | 0.00 | 0.00 | 44 | 1018.3 |
| 20260503205550 | 25 | 184 | 3.2 | 14.5 | 0.00 | 0.00 | 0.00 | 44 | 1018.4 |
| 20260503205053 | 25 | 275 | 3.2 | 14.5 | 0.00 | 0.00 | 0.00 | 46 | 1018.5 |
| 20260503204557 | 25 | 246 | 6.4 | 27.4 | 0.00 | 0.00 | 0.00 | 46 | 1018.5 |
| 20260503204050 | 25 | 244 | 8.0 | 27.4 | 0.00 | 0.00 | 0.00 | 43 | 1018.6 |
| 20260503203552 | 25 | 277 | 8.0 | 27.4 | 0.00 | 0.00 | 0.00 | 46 | 1018.6 |
| 20260503203051 | 25 | 286 | 1.6 | 11.3 | 0.00 | 0.00 | 0.00 | 44 | 1018.7 |
| 20260503202549 | 26 | 340 | 3.2 | 14.5 | 0.00 | 0.00 | 0.00 | 45 | 1018.8 |